Mora, MN

1:48 AM CDT on June 28, 2017 (GMT -0500)
Mora Municipal

Weather History for KJMR - May, 2013

Change the Weather History Date:

Wednesday, May 15, 2013

  Actual Average Record
Temperature  
Mean Temperature 58 °F -  
Max Temperature 75 °F 70 °F 90 °F (1991)
Min Temperature 41 °F 41 °F 26 °F (1980)
Degree Days  
Heating Degree Days 7    
Growing Degree Days 8 (Base 50)    
Moisture  
Dew Point 39 °F    
Average Humidity 45    
Maximum Humidity 87    
Minimum Humidity 21    
Precipitation  
Precipitation 0.00 in - - ()
Sea Level Pressure  
Sea Level Pressure 29.83 in    
Wind  
Wind Speed 9 mph (NW)    
Max Wind Speed 20 mph    
Max Gust Speed 28 mph    
Visibility 10 miles    
Events      
Averages and records for this station are not official NWS values.
T = Trace of Precipitation, MM = Missing Value Source: NWS Daily Summary

Daily Weather History Graph

Daily Weather History Graph

Search for Another Location

Airport or City:

Trip Planner

Search our weather history database for the weather conditions in past years. The results will help you decide how hot, cold, wet, or windy it might be!

Date:

Astronomy

May. 15, 2013 Rise Set
Actual Time 5:40 AM CDT 8:38 PM CDT
Civil Twilight 5:05 AM CDT 9:13 PM CDT
Nautical Twilight 4:21 AM CDT 9:58 PM CDT
Astronomical Twilight 3:27 AM CDT 10:52 PM CDT
Moon 10:20 AM CDT (5/15) 12:22 AM CDT (5/15)
Length of Visible Light 16h 07m
Length of Day
14h 57m
Waxing Crescent, 27% of the Moon is Illuminated
May 15
Waxing Crescent
May 17
First Quarter
May 24
Full
May 31
Last Quarter
Jun 8
New

Hourly Weather History & Observations

Time (CDT) Temp. Windchill Dew Point Humidity Pressure Visibility Wind Dir Wind Speed Gust Speed Precip Events Conditions
12:11 AM 62.6 °F - 42.8 °F 48% 29.69 in 10.0 mi NW 16.1 mph 19.6 mph N/A   Clear
12:31 AM 62.6 °F - 42.8 °F 48% 29.70 in 10.0 mi NNW 19.6 mph 25.3 mph N/A   Clear
12:51 AM 60.8 °F - 42.8 °F 52% 29.72 in 10.0 mi NW 17.3 mph 27.6 mph N/A   Clear
1:11 AM 59.0 °F - 42.8 °F 55% 29.73 in 10.0 mi NW 17.3 mph 24.2 mph N/A   Clear
1:31 AM 55.4 °F - 41.0 °F 58% 29.75 in 10.0 mi NW 12.7 mph 25.3 mph N/A   Clear
1:51 AM 55.4 °F - 41.0 °F 58% 29.75 in 10.0 mi NNW 18.4 mph 25.3 mph N/A   Clear
2:11 AM 55.4 °F - 41.0 °F 58% 29.77 in 10.0 mi NW 16.1 mph 20.7 mph N/A   Clear
2:31 AM 55.4 °F - 41.0 °F 58% 29.77 in 10.0 mi NW 15.0 mph 19.6 mph N/A   Clear
2:51 AM 53.6 °F - 41.0 °F 62% 29.79 in 10.0 mi NW 10.4 mph - N/A   Clear
3:11 AM 53.6 °F - 41.0 °F 62% 29.79 in 10.0 mi NW 9.2 mph - N/A   Clear
3:31 AM 51.8 °F - 41.0 °F 67% 29.80 in 10.0 mi NW 8.1 mph - N/A   Clear
3:51 AM 50.0 °F - 39.2 °F 66% 29.80 in 10.0 mi NW 5.8 mph - N/A   Clear
4:11 AM 50.0 °F - 41.0 °F 71% 29.81 in 10.0 mi NW 4.6 mph - N/A   Clear
4:31 AM 50.0 °F - 41.0 °F 71% 29.81 in 10.0 mi Calm Calm - N/A   Clear
4:51 AM 46.4 °F - 39.2 °F 76% 29.81 in 10.0 mi Calm Calm - N/A   Clear
5:11 AM 44.6 °F - 39.2 °F 81% 29.82 in 10.0 mi Calm Calm - N/A   Clear
5:31 AM 44.6 °F - 41.0 °F 87% 29.82 in 10.0 mi Calm Calm - N/A   Clear
5:51 AM 41.0 °F - 37.4 °F 87% 29.83 in 10.0 mi Calm Calm - N/A   Clear
6:11 AM 42.8 °F 41.1 °F 37.4 °F 81% 29.85 in 10.0 mi West 3.5 mph - N/A   Clear
6:31 AM 46.4 °F 45.2 °F 42.8 °F 87% 29.87 in 10.0 mi WNW 3.5 mph - N/A   Clear
6:51 AM 50.0 °F - 42.8 °F 76% 29.88 in 10.0 mi West 6.9 mph - N/A   Clear
7:11 AM 53.6 °F - 42.8 °F 67% 29.90 in 10.0 mi West 8.1 mph - N/A   Clear
7:31 AM 53.6 °F - 42.8 °F 67% 29.91 in 10.0 mi West 8.1 mph - N/A   Clear
7:51 AM 55.4 °F - 42.8 °F 63% 29.91 in 10.0 mi NW 9.2 mph - N/A   Clear
8:11 AM 59.0 °F - 42.8 °F 55% 29.90 in 10.0 mi WNW 6.9 mph - N/A   Clear
8:31 AM 59.0 °F - 42.8 °F 55% 29.91 in 10.0 mi West 8.1 mph - N/A   Clear
8:51 AM 60.8 °F - 42.8 °F 52% 29.91 in 10.0 mi West 5.8 mph - N/A   Clear
9:11 AM 64.4 °F - 42.8 °F 45% 29.91 in 10.0 mi Calm Calm - N/A   Clear
9:31 AM 64.4 °F - 41.0 °F 42% 29.90 in 10.0 mi NW 5.8 mph - N/A   Clear
9:51 AM 64.4 °F - 39.2 °F 40% 29.90 in 10.0 mi WNW 6.9 mph - N/A   Clear
10:11 AM 68.0 °F - 39.2 °F 35% 29.90 in 10.0 mi West 5.8 mph - N/A   Clear
10:31 AM 68.0 °F - 37.4 °F 33% 29.89 in 10.0 mi Calm Calm - N/A   Clear
10:51 AM 69.8 °F - 39.2 °F 33% 29.88 in 10.0 mi WSW 4.6 mph - N/A   Clear
11:11 AM 69.8 °F - 39.2 °F 33% 29.88 in 10.0 mi WSW 5.8 mph - N/A   Clear
11:31 AM 69.8 °F - 37.4 °F 31% 29.87 in 10.0 mi West 12.7 mph 23.0 mph N/A   Clear
11:51 AM 71.6 °F - 37.4 °F 29% 29.87 in 10.0 mi West 9.2 mph - N/A   Clear
12:11 PM 73.4 °F - 37.4 °F 27% 29.87 in 10.0 mi WNW 5.8 mph - N/A   Clear
12:31 PM 73.4 °F - 37.4 °F 27% 29.86 in 10.0 mi WNW 12.7 mph 23.0 mph N/A   Clear
12:51 PM 75.2 °F - 37.4 °F 25% 29.86 in 10.0 mi WNW 11.5 mph 19.6 mph N/A   Scattered Clouds
1:11 PM 73.4 °F - 37.4 °F 27% 29.85 in 10.0 mi WNW 13.8 mph 23.0 mph N/A   Mostly Cloudy
1:31 PM 75.2 °F - 37.4 °F 25% 29.85 in 10.0 mi WNW 12.7 mph 20.7 mph N/A   Mostly Cloudy
1:51 PM 75.2 °F - 37.4 °F 25% 29.84 in 10.0 mi West 11.5 mph 20.7 mph N/A   Scattered Clouds
2:11 PM 75.2 °F - 35.6 °F 24% 29.84 in 10.0 mi NNW 10.4 mph 17.3 mph N/A   Mostly Cloudy
2:31 PM 75.2 °F - 37.4 °F 25% 29.84 in 10.0 mi NNW 12.7 mph 18.4 mph N/A   Mostly Cloudy
2:51 PM 75.2 °F - 35.6 °F 24% 29.83 in 10.0 mi NW 8.1 mph 17.3 mph N/A   Mostly Cloudy
3:11 PM 75.2 °F - 35.6 °F 24% 29.83 in 10.0 mi NNW 8.1 mph - N/A   Mostly Cloudy
3:31 PM 75.2 °F - 35.6 °F 24% 29.82 in 10.0 mi WNW 6.9 mph - N/A   Mostly Cloudy
3:51 PM 75.2 °F - 33.8 °F 22% 29.82 in 10.0 mi North 9.2 mph - N/A   Scattered Clouds
4:11 PM 73.4 °F - 33.8 °F 23% 29.82 in 10.0 mi NNW 10.4 mph 19.6 mph N/A   Mostly Cloudy
4:31 PM 75.2 °F - 33.8 °F 22% 29.81 in 10.0 mi NNW 4.6 mph - N/A   Mostly Cloudy
4:51 PM 73.4 °F - 33.8 °F 23% 29.81 in 10.0 mi NW 4.6 mph - N/A   Scattered Clouds
5:11 PM 73.4 °F - 32.0 °F 22% 29.81 in 10.0 mi NW 12.7 mph - N/A   Mostly Cloudy
5:31 PM 75.2 °F - 32.0 °F 21% 29.81 in 10.0 mi NW 8.1 mph - N/A   Scattered Clouds
5:49 PM 73.4 °F - 32.0 °F 22% 29.81 in 10.0 mi NW 5.8 mph - N/A   Scattered Clouds
6:11 PM 75.2 °F - 33.8 °F 22% 29.80 in 10.0 mi NNW 6.9 mph - N/A   Scattered Clouds
6:31 PM 73.4 °F - 33.8 °F 23% 29.80 in 10.0 mi NNW 3.5 mph - N/A   Mostly Cloudy
6:51 PM 75.2 °F - 32.0 °F 21% 29.80 in 10.0 mi North 3.5 mph - N/A   Mostly Cloudy
7:11 PM 75.2 °F - 32.0 °F 21% 29.80 in 10.0 mi Calm Calm - N/A   Mostly Cloudy
7:31 PM 73.4 °F - 32.0 °F 22% 29.80 in 10.0 mi Calm Calm - N/A   Clear
7:51 PM 71.6 °F - 32.0 °F 23% 29.80 in 10.0 mi Calm Calm - N/A   Scattered Clouds
8:11 PM 68.0 °F - 33.8 °F 28% 29.80 in 10.0 mi Calm Calm - N/A   Scattered Clouds
8:31 PM 66.2 °F - 35.6 °F 32% 29.80 in 10.0 mi Calm Calm - N/A   Clear
8:51 PM 64.4 °F - 39.2 °F 40% 29.81 in 10.0 mi Calm Calm - N/A   Clear
9:11 PM 64.4 °F - 39.2 °F 40% 29.81 in 10.0 mi Calm Calm - N/A   Clear
9:31 PM 59.0 °F - 41.0 °F 51% 29.82 in 10.0 mi Calm Calm - N/A   Mostly Cloudy
9:51 PM 60.8 °F - 41.0 °F 48% 29.82 in 10.0 mi Calm Calm - N/A   Mostly Cloudy
10:11 PM 59.0 °F - 41.0 °F 51% 29.82 in 10.0 mi Calm Calm - N/A   Scattered Clouds
10:31 PM 55.4 °F - 41.0 °F 58% 29.82 in 10.0 mi Calm Calm - N/A   Mostly Cloudy
10:51 PM 55.4 °F - 42.8 °F 63% 29.82 in 10.0 mi Calm Calm - N/A   Mostly Cloudy
11:11 PM 55.4 °F - 42.8 °F 63% 29.82 in 10.0 mi Calm Calm - N/A   Scattered Clouds
11:51 PM 57.2 °F - 41.0 °F 55% 29.84 in 10.0 mi North 3.5 mph - N/A   Mostly Cloudy